MDT,Max TemperatureF,Mean TemperatureF,Min TemperatureF,Max Dew PointF,MeanDew PointF,Min DewpointF,Max Humidity, Mean Humidity, Min Humidity, Max Sea Level PressureIn, Mean Sea Level PressureIn, Min Sea Level PressureIn, Max VisibilityMiles, Mean VisibilityMiles, Min VisibilityMiles, Max Wind SpeedMPH, Mean Wind SpeedMPH, Max Gust SpeedMPH,PrecipitationIn, CloudCover, Events, WindDirDegrees
2013-3-1,48,34,20,15,12,9,62,44,26,30.40,30.32,30.22,10,10,10,17,7,21,0.00,1,,324
2013-3-2,63,45,27,18,16,14,63,40,16,30.36,30.21,29.99,10,10,10,18,9,23,0.00,0,,246
2013-3-3,69,51,32,22,16,5,56,32,8,30.00,29.73,29.55,10,10,10,22,7,26,0.00,0,,281
2013-3-4,57,35,13,28,23,14,96,63,30,30.25,29.90,29.54,10,6,0,38,11,49,0.00,4,Fog-Snow,357
2013-3-5,47,25,3,30,17,0,91,70,49,30.45,30.30,30.15,10,10,10,16,6,20,0.00,0,,228
2013-3-6,66,49,32,26,22,18,61,40,18,30.12,29.92,29.75,10,10,10,18,9,24,0.00,0,,231
2013-3-7,73,51,29,24,13,2,58,32,6,29.90,29.81,29.73,10,10,10,22,9,30,0.00,0,,273
2013-3-8,69,52,34,32,21,14,58,35,12,29.81,29.67,29.48,10,10,10,30,11,46,0.00,1,,235
2013-3-9,45,35,25,30,26,17,100,67,33,30.09,29.76,29.44,10,3,0,32,15,38,0.01,7,Fog-Snow,344
2013-3-10,35,27,19,21,17,12,75,61,47,30.18,30.14,30.10,10,10,10,20,9,23,0.00,2,,315
2013-3-11,56,40,23,29,21,14,85,55,24,30.14,30.00,29.86,10,10,10,23,10,29,0.00,1,,287
2013-3-12,46,37,28,32,28,26,92,75,58,30.31,30.20,30.09,10,10,5,15,5,18,0.00,5,,74
2013-3-13,66,45,24,29,25,18,92,55,17,30.27,30.22,30.15,10,10,10,17,7,21,0.00,0,,235
2013-3-14,70,53,35,26,22,18,64,40,15,30.30,30.16,30.03,10,10,10,21,9,24,0.00,0,,234
2013-3-15,78,58,38,23,18,8,50,29,7,30.03,29.88,29.73,10,10,10,23,11,29,0.00,0,,269
2013-3-16,56,46,36,32,26,20,82,55,28,29.98,29.84,29.73,10,10,10,16,7,29,T,1,,15
2013-3-17,66,48,30,34,24,10,82,48,14,29.76,29.61,29.44,10,10,10,37,15,47,0.00,1,,261
2013-3-18,61,41,20,15,7,-5,50,29,7,29.94,29.84,29.70,10,10,10,32,9,44,0.00,0,,62
2013-3-19,50,36,22,12,9,6,50,34,18,30.24,30.04,29.85,10,10,10,18,8,24,0.00,0,,66
2013-3-20,59,39,18,21,15,10,67,43,19,30.29,30.04,29.72,10,10,10,14,6,17,0.00,0,,336
2013-3-21,67,49,31,33,24,6,82,46,9,29.85,29.59,29.38,10,10,10,38,10,48,0.00,2,,322
2013-3-22,56,44,31,31,27,14,92,59,26,29.86,29.71,29.53,10,9,2,35,13,43,0.00,5,,141
2013-3-23,32,20,7,25,17,7,92,80,68,30.31,29.93,29.70,10,5,0,39,15,48,0.00,8,Fog-Rain-Snow,337
2013-3-24,38,20,2,19,10,0,91,59,27,30.32,30.20,30.07,10,8,2,18,9,22,T,5,Snow,39
2013-3-25,40,23,5,18,9,1,92,59,25,30.35,30.27,30.16,10,10,6,15,6,20,0.00,2,Snow,353
2013-3-26,63,40,16,15,12,8,67,40,12,30.25,30.01,29.83,10,10,10,21,8,25,0.00,0,,240
2013-3-27,63,45,26,23,19,11,58,39,19,30.05,29.94,29.85,10,10,10,16,8,21,0.00,1,,77
2013-3-28,68,50,31,22,19,12,63,38,12,30.06,30.00,29.91,10,10,10,14,6,17,0.00,1,,241
2013-3-29,68,50,32,24,20,15,56,35,14,30.07,30.01,29.93,10,10,10,20,8,35,T,1,Rain,277
2013-3-30,73,53,32,37,23,13,61,36,11,30.24,29.98,29.84,10,10,10,36,9,45,T,2,Rain,305
2013-3-31,70,51,32,38,32,24,92,56,20,30.24,29.98,29.81,10,10,10,18,8,23,0.00,2,Rain,248